KLM912 KBIL-CYYC

Flight info

Callsign KLM912
Flight time N/A
Altitude 38000
Route BIL DCT LEWIT DCT YQL DCT ILOSA EBGAL7
Aircraft MD11/H-SDE1E2E3FGHIJ2J3J4J5M1RWXY/LB1D1

Departure

Time 2026-04-24 23:09
Airport Billings Logan International Airport (KBIL)

Arrival

Time N/A
Airport Calgary International Airport (CYYC)
Time Latitude Longitude Altitude Speed Heading
2026-04-24 22:52 45.80511 -108.54305 3585 ft 0 kts 94°
2026-04-24 22:54 45.80511 -108.54306 3585 ft 0 kts 94°
2026-04-24 23:05 45.80511 -108.54296 3585 ft 3 kts 94°
2026-04-24 23:05 45.80503 -108.54234 3572 ft 9 kts 103°
2026-04-24 23:06 45.80489 -108.54112 3580 ft 15 kts 85°
2026-04-24 23:06 45.80519 -108.53928 3565 ft 23 kts 62°
2026-04-24 23:06 45.80578 -108.53715 3559 ft 23 kts 94°
2026-04-24 23:06 45.80524 -108.53475 3555 ft 29 kts 110°
2026-04-24 23:07 45.80470 -108.53183 3545 ft 33 kts 89°
2026-04-24 23:07 45.80426 -108.52827 3532 ft 39 kts 112°
2026-04-24 23:07 45.80305 -108.52445 3524 ft 44 kts 112°
2026-04-24 23:07 45.80180 -108.52024 3516 ft 48 kts 112°
2026-04-24 23:08 45.80136 -108.51704 3510 ft 19 kts 48°
2026-04-24 23:08 45.80224 -108.51702 3509 ft 5 kts 308°
2026-04-24 23:08 45.80227 -108.51713 3509 ft 0 kts 292°
2026-04-24 23:08 45.80227 -108.51714 3509 ft 1 kts 292°
2026-04-24 23:09 45.80310 -108.52021 3521 ft 73 kts 291°
2026-04-24 23:09 45.80596 -108.53058 3542 ft 145 kts 292°
2026-04-24 23:09 45.81026 -108.54628 3737 ft 185 kts 292°
2026-04-24 23:09 45.81444 -108.56225 5095 ft 167 kts 294°
2026-04-24 23:10 45.81813 -108.57858 5492 ft 174 kts 292°
2026-04-24 23:10 45.82173 -108.59529 5907 ft 180 kts 292°
2026-04-24 23:10 45.82536 -108.61179 6912 ft 170 kts 294°
2026-04-24 23:10 45.83272 -108.62697 7245 ft 208 kts 324°
2026-04-24 23:11 45.84713 -108.63594 7472 ft 245 kts 344°
2026-04-24 23:11 45.86391 -108.64224 8262 ft 255 kts 343°
2026-04-24 23:11 45.88101 -108.65014 9312 ft 258 kts 338°
2026-04-24 23:11 45.89774 -108.66003 10283 ft 265 kts 334°
2026-04-24 23:12 45.91519 -108.67219 10468 ft 299 kts 330°
2026-04-24 23:12 45.93453 -108.68752 10695 ft 329 kts 328°
2026-04-24 23:12 45.95435 -108.70459 11623 ft 334 kts 326°
2026-04-24 23:12 45.97400 -108.72236 12595 ft 338 kts 324°
2026-04-24 23:13 45.99387 -108.74093 13577 ft 341 kts 322°
2026-04-24 23:13 46.01374 -108.75992 14444 ft 346 kts 321°
2026-04-24 23:13 46.03376 -108.77931 15211 ft 351 kts 321°
2026-04-24 23:13 46.05426 -108.79931 15965 ft 356 kts 321°
2026-04-24 23:14 46.07463 -108.81926 16714 ft 360 kts 321°
2026-04-24 23:14 46.09558 -108.83984 17465 ft 365 kts 320°
2026-04-24 23:14 46.11684 -108.86075 18186 ft 370 kts 320°
2026-04-24 23:14 46.13818 -108.88177 18797 ft 375 kts 320°